Flag for Qatar Weather past 2 weeks in Al-Jamiliyah, Qatar

Now
93 °F

Sunny.


Feels Like: 92 °F
Forecast: 84 / 104 °F
Wind: 5 mph from Northwest

Location: Al Udeid

Current Time: Jul 2, 2015 at 10:13:59 PM

Latest Report: Jul 2, 2015 at 8:58 PM


Visibility: N/A

Pressure: 29.59 "Hg

Humidity: 29%

Dew point: 56 °F

Location of Al-JamiliyahLocation

Historic Weather in Al-Jamiliyah — Graph

°F

Al-Jamiliyah temperature yesterday

Maximum temperature yesterday: 106 °F (at 1:58 PM)
Minimum temperature yesterday: 84 °F (at 12:59 AM)
Average temperature yesterday: 96 °F

Past Weeks' High & Low Weather Summary

 TemperatureHumidityPressure
High115 °F (Jun 18, 11:58 AM)66% (Jul 2, 2:57 AM)29.66 "Hg (Jul 2, 2:57 AM)
Low80 °F (Jun 29, 4:58 AM)6% (Jun 25, 2:58 PM)29.42 "Hg (Jun 20, 4:58 PM)
Average97 °F25%29.53 "Hg
* Reported Jun 17 7:58 PM — Jul 2 7:58 PM, Al-Jamiliyah, Weather by CustomWeather, © 2015

Note: Actual official high and low records may vary slightly from our data, if they occured in-between our weather recording intervals... More about our weather records

Advertising

Al-Jamiliyah weather history for previous 24 hours

 ConditionsComfort  
Time TempWeatherWind HumidityBarometerVisibility
7:58 PM
Thu, Jul 2
96 °FSunny.10 mph23%29.58 "HgN/A
6:58 PM100 °FSunny.9 mph17%29.56 "HgN/A
5:58 PM102 °FSunny.15 mph14%29.56 "HgN/A
4:58 PM105 °FSunny.15 mph13%29.55 "HgN/A
3:58 PM106 °FSunny.16 mph13%29.55 "HgN/A
2:56 PM108 °FSunny.15 mph13%29.56 "HgN/A
1:58 PM108 °FSunny.13 mph14%29.57 "HgN/A
12:57 PM108 °FSunny.13 mph17%29.58 "HgN/A
11:58 AM107 °FClear.14 mph15%29.60 "Hg5 mi
10:58 AM105 °FClear.18 mph16%29.60 "Hg4 mi
9:58 AM102 °FClear.18 mph18%29.61 "Hg3 mi
8:58 AM99 °FClear.21 mph27%29.62 "Hg2 mi
7:58 AM93 °FClear.18 mph41%29.62 "Hg2 mi
6:58 AM89 °FClear.12 mph51%29.63 "Hg2 mi
5:58 AM86 °FClear.9 mph52%29.62 "Hg2 mi
4:58 AM84 °FHaze.8 mph58%29.60 "Hg2 mi
4:49 AM84 °FClear.8 mph58%29.60 "Hg2 mi
3:59 AM84 °FClear.10 mph62%29.59 "HgN/A
2:57 AM84 °FClear.10 mph66%29.58 "HgN/A
1:59 AM84 °FSunny.10 mph58%29.58 "HgN/A
12:58 AM85 °FSunny.13 mph50%29.57 "HgN/A
11:58 PM
Wed, Jul 1
86 °FSunny.8 mph46%29.58 "HgN/A
10:58 PM89 °FSunny.5 mph41%29.59 "HgN/A
Weather by CustomWeather, © 2015

See weather overviewHow to use our weather pages